Location: Feydey
(46.3431°N, 7.0106°E)
Time: 01:00:54
(UTC+00:00)

Cosmos 1674 - Visible Passes

Search period start: 24 October 2021 00:00
Search period end: 03 November 2021 00:00
Orbit: 492 x 515 km, 82.5° (Epoch: 23 October)

Date Brightness Start Highest point End Pass type
(mag) Time Alt. Az. Time Alt. Az. Time Alt. Az.
24 Oct 2.5 03:58:03 88° E 03:58:03 88° E 04:01:49 10° N visible
25 Oct 3.9 03:40:37 36° NNE 03:40:37 36° NNE 03:43:01 10° NNE visible
25 Oct 4.7 05:15:27 11° WNW 05:15:27 11° WNW 05:16:06 10° NW visible
26 Oct 5.0 03:22:58 19° NNE 03:22:58 19° NNE 03:24:11 10° NNE visible
26 Oct 4.8 04:57:47 12° NW 04:57:47 12° NW 04:58:20 10° NW visible
27 Oct 5.7 03:05:07 11° NNE 03:05:07 11° NNE 03:05:17 10° NNE visible
27 Oct 5.0 04:39:56 11° NNW 04:39:56 11° NNW 04:40:04 10° NNW visible
